www.pogodaiklimat.ru

Погода и климат >> Архив погоды >> Россия >> Чукотка >> Мыс Ванкарем


ПОГОДА на Мысе Ванкарем

  • Прогноз погоды на Мысе Ванкарем
  • Монитор погоды на Мысе Ванкарем
  • Климат города

АРХИВ ПОГОДЫ на Мысе Ванкарем

Время (UTC), дата Ветер
(напр.,м/с)
 
Видим.   Явления Облачность Т
(С)
Тd
(С)
f
(%)
Тe
(С)
Тes
(С)
Комфортность P
(гПа)
Po
(гПа)
Тmin
(С)
Tmax
(С)
R
(мм)
R24
(мм)
S
(см)
09 19.06 В 4
{7}
200 м туман ?/? +1.9 +1.9 100 -3 -3 1010.0 1009.4
12 19.06 В 5
{8}
200 м туман ?/? -0.4 -0.4 100 -7 -7 1009.3 1008.7
15 19.06 В 5
{8}
200 м туман ?/? -0.8 -0.8 100 -7 -7 1008.8 1008.2
18 19.06 В 3
{6}
200 м туман ?/? +0.2 +0.2 100 -5 -5 1007.6 1007.0 -0.8
21 19.06 ЮВ 4
{7}
200 м туман ?/? +1.2 +1.2 100 -4 -4 1007.5 1006.9
00 20.06 В 6
{8}
200 м туман ?/? +1.8 +1.8 100 -5 -5 1006.6 1006.0
03 20.06 В 5
{7}
200 м туман ?/? +2.0 +2.0 100 -4 -4 1005.3 1004.7
06 20.06 В 5
{7}
200 м туман ?/? +1.4 +1.4 100 -5 -5 1004.9 1004.3 +2.0
09 20.06 В 4
{6}
200 м туман ?/? +1.0 +1.0 100 -5 -5 1004.5 1003.9
12 20.06 В 4
{6}
200 м туман ?/? -0.5 -0.5 100 -6 -6 1003.9 1003.3
15 20.06 ЮВ 5
{7}
200 м туман ?/? -0.8 -0.8 100 -7 -7 1003.1 1002.5
18 20.06 В 4
{6}
200 м туман ?/? +0.3 +0.3 100 -5 -5 1002.4 1001.8 -0.8
21 20.06 В 4
{6}
200 м туман 9/6 200 м
[Sc Ac trans]
+1.1 +1.1 100 -4 -3 1002.2 1001.6
00 21.06 В 6
{8}
20 км {туман} 8/5 600 м
[Sc Ci fib]
+3.5 +0.3 80 -2 0 1001.9 1001.3
03 21.06 штиль 0
{7}
20 км 9/6 1000 м
[Cu hum Ci fib]
+10.9 +5.0 67 +10 +14 1001.8 1001.2
06 21.06 Ю 5
{8}
20 км 6/4 1000 м
[Cu hum Ci fib]
+12.7 +5.9 63 +11 +11 1003.0 1002.4 +13.0
09 21.06 З 10
{13}
20 км 10/9 600 м
[Sc Ci fib]
+1.9 -0.9 82 -6 -6 1007.2 1006.6
12 21.06 З 5
{12}
20 км 10/3 600 м
[Sc Ci fib]
+1.0 -1.6 83 -5 -5 1009.9 1009.3
15 21.06 З 6
{8}
20 км 8/4 600 м
[Sc Ci fib]
+0.2 -2.2 84 -6 -6 1011.9 1011.3
18 21.06 З 5
{8}
20 км 6/3 600 м
[Sc Ci fib]
+0.9 -1.7 83 -5 -4 1013.7 1013.1 +0.2
21 21.06 В 4
{6}
20 км 6/6 600 м
[Sc]
+1.9 -1.2 80 -3 -1 1013.7 1013.1
00 22.06 Ю 7
{9}
20 км 4/0
[Ci fib]
+12.7 +5.0 59 +10 +13 1012.4 1011.8
03 22.06 ЮЗ 8
{11}
20 км 3/0
[Ci fib]
+13.0 +6.2 63 +10 +12 1012.2 1011.6
06 22.06 Ю 8
{10}
20 км 6/0
[Ci fib]
+10.7 +5.0 68 +7 +8 1012.8 1012.2 +14.4
09 22.06 Ю 8
{12}
20 км 8/0
[Ac lent Ci fib]
+6.8 +2.7 75 +2 +2 1013.4 1012.8
12 22.06 Ю 8
{11}
20 км 6/0
[Ac lent]
+5.7 +1.4 74 0 0 1013.0 1012.4
15 22.06 Ю 8
{11}
20 км 6/0
[Ac lent]
+4.5 +0.6 76 -1 -1 1012.6 1012.0
18 22.06 Ю 8
{12}
20 км ясно +6.1 +1.1 70 +1 +2 1011.2 1010.6 +4.5
21 22.06 Ю 6
{11}
20 км 4/4 1000 м
[Cu hum]
+8.9 +2.3 63 +5 +7 1010.4 1009.8
00 23.06 Ю 7
{10}
20 км 8/8 1000 м
[Cu hum]
+11.0 +3.2 59 +8 +8 1010.0 1009.4
03 23.06 Ю 8
{12}
20 км 8/8 1000 м
[Cu hum]
+11.9 +5.6 65 +9 +9 1009.3 1008.7
06 23.06 Ю 7
{11}
20 км 10/10 1000 м
[Cu hum]
+9.0 +4.0 71 +5 +5 1009.6 1009.0 +12.5
09 23.06 Ю 8
{11}
20 км 10/10 600 м
[Cu hum]
+5.2 +0.8 73 -0 -0 1008.7 1008.1
12 23.06 Ю 7
{10}
20 км 10/5 600 м
[Sc Ac und]
+6.2 +2.8 79 +1 +1 1007.7 1007.1
15 23.06 Ю 1
{11}
20 км 10/5 600 м
[Sc Ac und]
+5.7 +1.7 75 +5 +5 1007.1 1006.5
18 23.06 Ю 7
{10}
20 км 10/6 600 м
[Sc As op]
+6.4 +1.7 72 +2 +2 1006.6 1006.0 +5.2
21 23.06 Ю 5
{10}
20 км 10/5 1000 м
[Cu hum Ac lent]
+9.3 +1.9 60 +6 +7 1005.8 1005.2
00 24.06 Ю 8
{12}
20 км 8/8 1000 м
[Cu hum]
+12.7 +5.0 59 +10 +10 1004.6 1004.0
03 24.06 Ю 10
{13}
20 км 3/3 1000 м
[Cu hum]
+13.1 +4.3 55 +10 +10 1003.0 1002.4
06 24.06 Ю 9
{13}
20 км 9/5 1000 м
[Cu hum Cc]
+11.0 +4.1 62 +7 +7 1003.1 1002.5 +13.9
09 24.06 Ю 11
{14}
20 км 9/3 1000 м
[Cu hum Cc]
+9.2 +3.4 67 +4 +4 1003.7 1003.1
12 24.06 Ю 10
{14}
20 км 10/4 1000 м
[Cu hum Ci fib]
+8.5 +4.1 74 +4 +4 1003.9 1003.3
15 24.06 Ю 11
{14}
20 км 10/5 1000 м
[Cu hum Ci fib]
+7.7 +3.2 73 +2 +2 1004.4 1003.8
18 24.06 Ю 11
{13}
20 км 9/3 1000 м
[Cu hum Ci fib]
+8.9 +3.8 70 +4 +4 1004.7 1004.1 +7.0
21 24.06 Ю 11
{14}
20 км 9/5 600 м
[Cu hum Ac lent]
+10.4 +2.5 58 +6 +6 1003.6 1003.0
00 25.06 Ю 9
{14}
20 км 6/6 1000 м
[Cu hum]
+11.0 +4.3 63 +7 +8 1004.1 1003.5
03 25.06 СЗ 8
{13}
10 км в посл. час туман 9/9 200 м
[St]
+3.5 +1.7 88 -3 -3 1007.8 1007.2
06 25.06 СЗ 4
{10}
10 км {туман} 10/10 200 м
[St]
+2.9 +0.2 82 -2 -2 1010.0 1009.4 +11.9
09 25.06 СЗ 3
{7}
10 км 10/10 200 м
[St]
+1.9 -0.3 85 -2 -2 1012.1 1011.5
12 25.06 СЗ 4
{6}
10 км 10/10 200 м
[St]
+1.0 -1.6 83 -4 -4 1012.9 1012.3
15 25.06 СЗ 4
{6}
10 км 10/10 200 м
[St]
+0.7 -1.9 83 -5 -5 1013.9 1013.3
18 25.06 С 3
{6}
10 км 10/10 200 м
[St]
+0.9 -1.4 85 -4 -4 1012.3 1011.7 +0.2
21 25.06 С 2
{5}
10 км 10/10 200 м
[St]
+1.0 -1.3 85 -2 -2 1011.9 1011.3
00 26.06 С 2
{4}
200 м туман 10/10 200 м
[St]
+1.5 +1.5 100 -2 -2 1011.4 1010.8
03 26.06 С 3
{5}
200 м туман {морось} 10/10 200 м
[St]
+1.9 +1.9 100 -3 -3 1010.6 1010.0
06 26.06 С 4
{6}
200 м туман {морось} 10/10 200 м
[St]
+1.7 +1.7 100 -4 -4 1009.8 1009.2 +2.1 0.4

 

Местоположение метеостанции Мыс Ванкарем (Чукотка, Россия): широта 67.83 долгота -175.00 высота над уровнем моря 5 м.

В архиве по умолчанию представлена погода на Мысе Ванкарем за последнюю неделю. Архивные данные за месяц целиком и за предыдущие месяцы, начиная с января 2011 года, Вы можете получить, выбрав интересующий диапазон дат из раскрывающегося списка и нажав кнопку "Ввод!".

Внимание! Время в таблицах - всемирное. Для получения местного времени необходимо прибавить поправку, которая на Мысе Ванкарем равна 12 ч.

Смотрите также архив погоды в соседних городах и на ближайших метеорологических станциях:

Погода в Эгвекиноте (Чукотка, Россия) (239 км)
Погода в Уэлене (Чукотка, Россия) (320 км)
Погода на Острове Врангеля (Чукотка, Россия) (369 км)

Пояснения к столбцам:

Ветер - указаны скорость ветра в м/с - средняя за 10 мин, порывы в срок и между сроками (в фигурных скобках) и направление, откуда дует ветер: С - северный, СВ - северо-восточный, В - восточный, ЮВ - юго-восточный, Ю - южный, ЮЗ - юго-западный, З - западный, СЗ - северо-западный.
Видимость - горизонтальная дальность видимости в метрах или километрах. При видимости от 1 до 10 км при отсутствии осадков обычно наблюдается дымка, при ухудшении видимости до 1 км и менее - туман. В сухую погоду видимость может ухудшаться дымом, пылью или мглою.
Явления - указаны атмосферные явления, наблюдавшиеся в срок или в последний час перед сроком; фигурными скобками обозначены явления, наблюдавшиеся между сроками (за 1-3 часа до срока); квадратными скобками обозначены град или гололедные отложения с указанием их диаметра в мм.
Облачность - указаны через наклонную черту общая и нижняя облачность в баллах и высота нижней границы облаков в метрах; квадратными скобками обозначены формы облаков: Ci - перистые, Cs - перисто-слоистые, Cc - перисто-кучевые, Ac - высококучевые, As - высокослоистые, Sc - слоисто-кучевые, Ns - слоисто-дождевые, Cu - кучевые, Cb - кучево-дождевые. Подробнее классификацию облаков см. в Атласе облаков (PDF).
T - Температура воздуха - температура, измеренная на высоте 2 м над землей.
Td - Температура точки росы - температура, при понижении до которой содержащийся в воздухе водяной пар достигнет насыщения.
f - Относительная влажность воздуха - влажноcть воздуха, измеренная на высоте 2 м над землей.
Te - Эффективная температура - температура, которую ощущает одетый по сезону человек в тени. Характеристика душности погоды. При расчете учитывается влияние влажности воздуха и скорости ветра на теплоощущения человека.
Tes - Эффективная температура на солнце - температура, которую ощущает человек, с поправкой на солнечный нагрев. Характеристика знойности погоды. Зависит от высоты солнца над горизонтом, облачности и скорости ветра. Ночью, в пасмурную погоду, а также при ветре 12 м/с и более поправка равна нулю.
P - Атмосферное давление - приведенное к уровню моря атмосферное давление.
Po - Атмосферное давление - измеренное на уровне метеостанции атмосферное давление.
Tmin - Минимальная температура - минимум температуры воздуха на высоте 2 м над землей.
Tmax - Максимальная температура - максимум температуры воздуха на высоте 2 м над землей.
R - Количество осадков - Количество выпавших осадков за период времени, мм. При наведении курсора мыши на число - период времени, за который выпало указанное количество осадков.
R24 - Количество осадков - Количество выпавших осадков за 24 часа, мм.
S - Снежный покров - Высота снежного покрова, см. При наведении курсора мыши на число - состояние снежного покрова и степень покрытия местности в баллах.